Location: Cabeza Gorda
(40.0667°N, 4.9667°W)
Time: 20:14:04
(UTC+00:00)

Cosmos 2074 Rocket - Pass Details

Date: 15 January 2026
Orbit: 966 x 986 km, 82.9° (Epoch: 10 February)

Event Time Altitude Azimuth Distance (km) Brightness Sun altitude
Rises 05:39:53 0° 181° (S) 3,677 7.1 -22.6°
Reaches altitude 10° 05:42:24 10° 180° (S) 2,734 6.4 -22.1°
Maximum altitude 05:48:40 79° 95° (E) 1,007 4.1 -20.9°
Drops below altitude 10° 05:54:58 10° 10° (N) 2,749 6.3 -19.8°
Sets 05:57:29 0° 9° (N) 3,699 7.0 -19.3°
